Regional Weather Roundup
Issued by NWS

Home | Current Version | Previous Version | Text Only | Print | Product List | Glossary Off
Versions: 1 2 3 4 5 6 7 8 9 10 11 12 13 14 15 16 17 18 19 20 21 22 23 24 25 26 27 28 29 30 31 32 33 34 35 36 37 38 39 40 41 42 43 44 45 46 47 48 49 50

000
ASUS43 KLOT 232103
RWRIL

ILLINOIS REGIONAL WEATHER ROUNDUP
NATIONAL WEATHER SERVICE CHICAGO/ROMEOVILLE IL
300 PM CST THU FEB 23 2017

NOTE: "FAIR" INDICATES FEW OR NO CLOUDS BELOW 12,000 FEET WITH NO
SIGNIFICANT WEATHER AND/OR OBSTRUCTIONS TO VISIBILITY.

* THESE STATIONS ARE NOT UNDER NWS QUALITY CONTROL. THEY ALSO MAY NOT
  REPORT WEATHER SUCH AS PRECIPITATION OR FOG.

ILZ001-002-007-009-015-016-024-232200-
NORTHWEST ILLINOIS

CITY           SKY/WX    TMP DP  RH WIND       PRES   REMARKS
MOLINE         LGT RAIN  50  43  77 E12       29.72S
STERLING*      LGT RAIN  46  44  93 E14       29.73F
SAVANNA*       LGT RAIN  45  41  87 NE7       29.74S
$$

ILZ003-004-008-010-011-017-018-232200-
NORTH CENTRAL ILLINOIS

CITY           SKY/WX    TMP DP  RH WIND       PRES   REMARKS
ROCKFORD       LGT RAIN  44  38  79 E16       29.77F
FREEPORT*      LGT RAIN  43  40  89 NE13      29.77F
ROCHELLE*      CLOUDY    44  39  84 E12G22    29.77R
DE KALB*       CLOUDY    43  37  82 NE16G23   29.75F
PERU*          DRIZZLE   48  42  80 NE15G23   29.73F
$$

ILZ005-006-012>014-019>023-232200-
NORTHEAST ILLINOIS

CITY           SKY/WX    TMP DP  RH WIND       PRES   REMARKS
CHICAGO-OHARE  CLOUDY    42  35  76 NE13      29.81S
CHICAGO-MIDWAY CLOUDY    42  35  76 NE18      29.81F
AURORA         CLOUDY    44  36  73 NE17      29.77F
LANSING*       CLOUDY    42  39  91 NE10      29.81F
JOLIET*        CLOUDY    47  40  78 NE10      29.79R
WAUKEGAN       CLOUDY    37  33  85 NE13      29.83F WCI  29
DUPAGE AIRPORT CLOUDY    42  34  73 NE18G26   29.76F
KANKAKEE*      CLOUDY    47  40  76 NE12      29.77S
WHEELING       CLOUDY    39  33  79 N14       29.84S WCI  31
MORRIS*        CLOUDY    47  40  75 NE10G16   29.75R
ROMEOVILLE*    CLOUDY    43  40  89 NE17      29.79S
NORTHERLY ISL    N/A     39  36  89 N12         N/A  WCI  32
$$

LMZ740>746-232200-
SOUTHERN LAKE MICHIGAN

STATION/POSITION SKY/WX   TEMP    WIND        PRES    VSBY  WAVE
                          AIR SEA DIR/SP/G                  HT/PER
                          (F)     (DEG/KT/KT) (MB)    (MI)  (FT/S)
HARRISON CRIB              38      20/  8/  9   N/A
BURNHAM HARBOR             39      10/  7/ 13   N/A
CALUMET HARBOR             39      10/ 10/ 12 1009.7R
BURNS HARBOR               38      50/  6/ 10 1010.8R
MICHIGAN CITY              36      20/ 12/ 13   N/A
$$

ILZ025>027-034>036-040-047-049-050-058-095>099-232200-
WEST-CENTRAL ILLINOIS

CITY           SKY/WX    TMP DP  RH WIND       PRES   REMARKS
QUINCY         CLOUDY    52  47  83 E13       29.60F
GALESBURG*     LGT RAIN  47  45  93 NE10      29.69F
MACOMB*        LGT RAIN  48  46  93 E16       29.69F
JACKSONVILLE*  CLOUDY    55  49  81 NE12      29.64F
PITTSFIELD*    CLOUDY    55  50  84 E13       29.63F
$$

ILZ028>032-037-038-041>044-048-051>054-059>061-232200-
CENTRAL ILLINOIS

CITY           SKY/WX    TMP DP  RH WIND       PRES   REMARKS
PONTIAC        RAIN      51  46  83 NE21      29.72F
BLOOMINGTON    CLOUDY    56  49  77 E14       29.70F
DECATUR        CLOUDY    60  53  77 E14       29.67F
PEORIA         CLOUDY    51  46  83 NE9       29.70S
LACON*         RAIN      50  46  85 NE8       29.72R
LINCOLN*       CLOUDY    58  52  78 E14       29.66F
SPRINGFIELD    LGT RAIN  58  51  78 NE13      29.65F
TAYLORVILLE    CLOUDY    62  55  80 NE13      29.66S
$$

ILZ033-039-045-046-055>057-062-063-232200-
EAST-CENTRAL ILLINOIS

CITY           SKY/WX    TMP DP  RH WIND       PRES   REMARKS
CHAMPAIGN      CLOUDY    61  53  75 NE13      29.70S
RANTOUL*       CLOUDY    62  53  72 E12       29.69F
MATTOON        PTSUNNY   66  55  67 S9        29.67F
PARIS*         PTSUNNY   68  56  65 S9        29.69F
$$

ILZ079-100>102-232200-
SOUTHWEST ILLINOIS

CITY           SKY/WX    TMP DP  RH WIND       PRES   REMARKS
BELLEVILLE     CLOUDY    66  59  76 MISG      29.62F
CAHOKIA*       PTSUNNY   69  54  58 SE16      29.60F
SPARTA*        CLOUDY    65  56  72 S8        29.66F
$$

ILZ064>066-069>071-074>076-080>082-084>086-088>090-092>094-232200-
SOUTH-CENTRAL ILLINOIS

CITY           SKY/WX    TMP DP  RH WIND       PRES   REMARKS
CARBONDALE     PTSUNNY   69  56  62 S15       29.65F
CAIRO*         MOSUNNY   72  55  55 SW14      29.67F
EFFINGHAM*     PTSUNNY   68  55  64 SE5       29.68F
MARION         PTSUNNY   73  57  56 S12G20    29.67F
MT. VERNON     CLOUDY    70  55  59 S10G18    29.67F
CENTRALIA*     CLOUDY    69  56  63 S12       29.65F
SALEM*         CLOUDY    69  54  59 S10G16    29.66F
METROPOLIS*    MOSUNNY   74  55  52 S8G21     29.68F
$$

ILZ067-068-072-073-078-083-087-091-232200-
SOUTHEAST ILLINOIS

CITY           SKY/WX    TMP DP  RH WIND       PRES   REMARKS
LAWRENCEVILLE  CLOUDY    70  56  61 SW15      29.69F
FLORA*         CLOUDY    69  55  61 S14       29.68F
FAIRFIELD*     CLOUDY    69  54  58 S7        29.67F
HARRISBURG*    PTSUNNY   71  57  62 S9        29.67F
ROBINSON*      CLOUDY    68  55  63 S9        29.70F
CARMI*         CLOUDY    70  57  63 S12       29.67F
$$

ABBREVIATIONS USED IN REMARKS
   TC - TEMPERATURE IN CELSIUS
  WCI - WIND CHILL INDEX
   HX - HEAT INDEX
  VSB - VISIBILITY
$$




USA.gov is the U.S. government's official web portal to all federal, state and local government web resources and services.